Wind_Speed
16 13 22 23 23 27 24 26 25 23 18 19 18 21 23 16 17 19 16 13 15 15 15 20 20 19 24 23 24 29 31 34 32 27 27 25 26 24 25 26 23 25 26 27
18 23 24 22 25 26 27 27 27 22 22 17 20 25 18 18 21 21 22 17 15 17 17 18 22 22 21 21 22 22 29 35 31 28 27 23 22 23 22 25 28 28 27 28
21 27 24 26 24 26 26 26 21 20 19 18 21 24 22 27 25 21 22 15 17 17 13 8 7 11 25 25 22 21 23 33 30 26 23 21 23 20 22 23 24 27 27 29
23 21 26 28 26 24 25 23 18 19 16 16 18 15 22 17 14 23 23 22 12 3 6 7 8 8 15 24 27 24 23 23 32 29 26 28 24 19 16 20 21 23 26 29
25 25 24 27 30 24 19 22 16 18 18 17 20 12 17 17 18 11 9 5 2 3 4 6 7 10 20 18 25 28 26 24 32 32 28 29 24 20 16 19 22 23 23 26
26 28 28 26 27 26 12 16 15 17 13 15 19 17 14 15 14 13 11 4 7 9 9 7 8 10 16 19 19 30 26 22 30 29 32 28 26 20 20 23 21 23 24 26
26 25 27 27 26 11 14 10 8 7 10 13 18 16 12 13 6 10 8 9 11 11 12 16 9 8 8 15 18 26 24 20 29 28 28 24 28 23 18 25 23 20 21 25
16 21 15 19 18 9 23 18 7 7 7 13 19 9 10 11 16 9 10 11 13 14 15 17 21 20 8 7 22 19 19 18 25 27 25 23 20 16 15 15 16 19 20 22
9 14 17 22 8 6 17 23 20 12 14 6 6 11 17 18 6 12 10 13 15 15 14 17 18 21 12 16 15 10 11 17 22 25 22 20 19 15 11 13 14 14 17 17
4 11 17 9 14 20 12 12 13 7 4 4 2 5 7 9 10 9 10 13 16 16 14 16 17 19 28 17 10 3 8 12 21 23 19 17 14 13 12 12 13 13 14 12
13 7 13 12 7 15 11 4 4 7 10 2 2 4 10 13 8 9 12 14 16 14 14 15 16 24 32 13 6 3 5 6 22 20 15 16 14 13 12 11 13 14 11 12
9 5 7 15 19 28 19 14 17 4 5 7 2 3 6 11 9 16 16 17 16 16 15 15 15 19 25 25 6 5 5 15 18 17 14 15 15 13 13 12 12 13 12 15
6 4 5 4 13 21 19 16 11 14 2 6 5 4 6 13 19 18 18 17 17 16 17 16 16 15 19 25 28 7 6 3 12 19 15 14 15 14 12 11 12 13 15 20
11 6 10 10 10 12 16 15 3 2 4 4 6 13 7 16 16 16 17 17 17 16 17 16 15 15 20 25 26 28 8 0 6 13 12 13 16 14 13 12 13 15 17 21
3 7 9 23 29 13 10 11 7 7 5 3 4 15 17 18 16 17 16 16 17 18 19 17 15 15 19 24 28 29 29 8 8 10 11 11 14 18 15 17 15 16 18 20
3 3 10 9 4 21 12 8 16 9 9 9 11 7 21 19 17 17 17 17 16 17 18 18 18 17 17 22 24 27 28 28 9 4 7 9 11 14 15 14 15 16 18 19
4 1 2 11 15 19 15 10 11 19 20 15 12 18 21 17 16 16 15 15 15 16 16 18 17 17 21 22 22 24 26 26 16 16 14 15 13 14 13 13 15 13 13 18
6 11 1 3 4 9 11 17 19 21 18 18 16 20 18 11 14 15 15 14 14 14 15 16 16 21 23 23 24 25 27 26 21 20 19 15 16 17 16 17 17 16 17 17
6 8 3 3 9 9 14 18 15 11 11 17 16 17 16 10 8 16 14 12 12 11 13 17 21 23 23 26 25 25 28 27 25 24 25 20 14 16 18 21 19 18 21 22
7 6 3 2 6 3 9 18 16 8 4 14 14 15 15 10 4 6 11 11 12 16 17 20 23 25 28 30 25 27 28 29 26 23 26 27 24 21 22 21 23 23 26 27
5 6 7 5 5 6 17 22 15 2 5 10 11 12 14 10 6 6 9 12 15 17 21 21 24 26 29 29 27 27 28 28 24 25 35 36 31 30 26 25 24 28 30 33
8 6 6 7 5 4 23 9 7 5 7 9 10 10 10 10 10 10 11 12 16 18 22 24 23 25 28 31 25 27 29 27 23 31 36 38 39 35 28 27 25 23 26 26
5 5 3 6 4 8 11 11 10 10 9 11 10 9 9 10 11 11 12 13 16 19 20 22 22 22 28 30 29 25 24 24 27 33 31 35 38 34 33 35 30 25 21 26
4 12 3 6 8 10 11 11 11 10 10 11 11 10 11 11 11 11 11 11 15 18 19 20 22 24 25 29 31 29 25 25 25 29 31 32 33 34 33 34 35 26 24 31
4 8 7 7 9 10 12 10 9 9 9 11 11 12 12 11 12 10 10 12 15 15 16 19 20 21 24 26 28 32 26 26 27 25 23 26 26 29 28 36 31 27 35 27
5 4 4 4 5 9 7 8 8 9 10 12 11 12 14 13 11 13 12 15 17 18 19 20 21 22 22 24 27 27 25 26 23 23 23 22 17 22 25 24 28 31 31 31
Wind_Direction
226 229 233 231 230 247 261 264 263 265 266 260 234 248 267 242 274 287 275 248 256 257 264 266 252 231 231 234 226 207 172 172 170 180 184 194 196 199 206 200 191 200 205 209
243 240 244 250 255 251 242 249 258 267 268 286 287 282 281 270 266 252 257 246 255 259 244 238 240 219 228 223 229 193 176 167 175 184 198 196 194 201 205 208 213 215 215 217
256 259 255 243 246 254 253 253 250 264 268 266 261 269 275 258 254 253 252 247 245 251 255 257 251 216 212 214 218 182 177 168 177 179 185 189 196 202 201 200 211 217 217 218
273 270 268 261 253 231 251 251 253 251 261 262 257 266 263 269 246 224 237 232 224 295 320 311 295 286 249 203 206 192 186 190 180 176 185 193 192 187 193 191 205 223 222 224
271 272 258 262 260 246 238 246 248 252 252 255 260 267 267 272 281 173 135 117 82 261 299 276 277 276 258 228 198 189 189 198 169 178 193 200 192 186 188 210 214 215 212 208
266 270 276 268 257 257 256 237 236 240 248 250 244 244 256 274 267 134 99 122 56 27 352 295 271 267 270 224 207 180 180 189 169 182 203 202 182 184 195 192 192 199 211 219
265 263 268 264 242 265 215 213 224 227 220 240 243 239 224 214 321 105 134 84 57 28 6 346 299 277 239 225 204 160 171 182 172 186 204 202 181 197 204 179 189 188 198 209
288 287 273 263 238 202 221 212 204 207 210 237 229 232 249 191 164 114 68 65 59 39 10 348 338 336 298 213 133 151 170 194 175 180 201 201 192 200 210 186 195 191 202 202
310 290 290 247 191 161 218 217 206 275 279 259 260 211 123 157 178 113 89 62 55 38 11 343 344 338 308 92 100 129 175 206 184 177 191 198 188 182 188 194 181 205 208 206
297 305 300 267 182 210 181 221 214 217 237 237 243 172 233 48 120 79 63 63 51 35 10 350 356 342 339 98 107 168 232 272 169 166 177 185 169 176 192 171 193 196 206 217
303 243 279 307 197 235 182 186 238 209 250 274 239 112 60 104 14 39 67 60 58 37 15 359 360 351 351 73 69 201 240 358 139 149 165 168 173 183 162 187 199 204 205 216
308 281 289 240 193 220 212 172 218 247 255 246 110 21 358 330 50 32 52 56 57 37 20 6 2 1 359 358 80 335 318 325 152 153 150 151 171 176 169 170 188 193 195 201
359 279 307 237 248 249 213 201 177 218 223 301 308 105 276 285 51 46 41 28 35 28 17 10 5 5 358 357 358 350 347 331 132 141 147 159 177 183 169 173 172 178 184 179
268 243 236 260 285 194 202 192 250 108 201 195 251 123 58 32 32 40 26 21 25 16 17 10 3 0 358 357 357 354 333 263 142 131 151 179 179 176 178 183 176 173 188 183
238 244 235 246 248 129 112 139 181 195 79 254 17 49 31 28 35 28 19 19 16 12 10 8 3 359 356 358 354 352 350 305 155 167 176 196 188 182 174 179 171 169 186 189
211 295 284 73 106 117 125 178 211 151 22 10 342 27 16 17 36 25 19 17 16 11 5 5 2 359 358 359 354 350 348 347 210 137 165 183 192 175 161 155 153 169 173 181
283 347 272 67 101 102 65 46 65 67 42 20 23 1 359 20 43 33 22 22 17 11 8 6 4 0 357 2 1 358 350 358 18 91 87 99 102 107 106 138 137 129 100 107
299 282 148 147 202 78 53 36 85 83 45 25 14 8 359 78 66 44 29 22 19 15 14 9 4 4 3 7 15 18 13 12 15 46 54 71 98 103 107 113 110 114 115 107
230 315 31 82 80 145 35 20 9 16 47 18 9 7 358 141 108 44 26 26 25 22 25 18 11 10 10 16 21 38 28 21 26 32 42 43 68 92 103 101 103 108 109 100
358 328 24 123 103 65 13 336 339 330 73 20 18 15 6 3 49 27 16 23 33 33 32 27 22 18 19 14 24 40 39 29 23 32 51 51 55 60 78 91 96 99 101 92
352 14 23 26 61 86 349 331 310 45 7 34 34 35 36 55 50 36 26 30 35 37 33 30 30 28 19 19 26 36 40 32 26 38 55 52 50 52 57 69 80 91 90 90
39 337 25 351 38 60 359 26 50 343 51 51 56 49 58 54 47 40 36 33 28 30 32 27 31 29 26 25 30 37 38 35 30 58 56 60 56 47 47 55 59 68 80 79
52 20 37 27 71 73 45 55 39 38 53 45 54 57 63 59 50 40 36 35 33 32 31 33 34 32 28 28 29 39 33 40 42 49 51 58 68 63 55 55 42 36 60 69
49 10 82 170 67 66 55 62 57 49 56 54 58 62 61 62 55 49 43 38 36 33 33 35 36 33 30 30 33 36 39 40 46 54 52 52 57 55 60 58 57 42 41 57
349 322 24 97 118 107 57 51 50 59 71 72 63 60 63 65 60 54 50 45 41 39 41 41 42 44 34 28 33 38 39 44 47 48 55 60 59 63 57 61 62 58 57 66
1 8 357 58 42 88 63 54 64 69 63 63 70 67 60 60 61 57 55 50 47 43 40 41 44 44 37 33 33 31 34 41 47 53 52 49 62 71 71 68 65 61 67 65
Height
723 733 721 717 716 714 709 704 701 690 684 689 690 693 685 675 673 674 669 667 667 665 662 660 660 661 664 667 670 674 679 686 694 705 711 717 720 726 729 732 736 741 744 750
722 714 706 708 704 701 702 704 699 692 688 694 694 687 677 675 670 670 666 662 662 660 657 655 655 655 659 662 665 669 675 681 688 698 707 713 717 722 725 728 732 737 740 744
716 701 696 698 701 702 696 695 697 703 695 692 694 692 680 663 660 657 654 652 654 651 650 647 647 649 652 656 661 664 670 677 684 694 704 710 715 719 722 722 726 731 735 739
708 698 698 693 687 690 698 683 689 699 704 711 690 696 678 651 641 643 645 647 646 645 647 647 647 647 647 649 653 660 665 673 680 689 698 703 704 708 713 717 723 727 731 734
708 699 695 693 682 676 685 680 689 695 700 701 697 698 672 653 646 639 642 643 645 646 648 649 648 646 644 644 647 653 660 669 675 684 693 697 700 705 709 714 718 722 726 729
699 690 684 681 678 675 679 682 689 693 696 704 689 688 678 660 639 636 641 645 645 648 649 646 643 642 640 640 643 648 656 664 672 680 687 690 695 700 704 709 713 717 721 724
704 690 681 672 677 679 677 693 715 715 703 698 677 672 664 653 643 639 643 645 649 652 654 651 643 638 634 636 639 646 654 661 670 676 682 686 690 695 699 703 708 711 715 719
718 692 676 668 668 687 686 684 698 698 692 684 666 674 655 636 636 639 644 648 653 659 661 661 657 645 636 632 640 647 654 660 666 672 678 683 686 692 697 700 704 707 711 713
724 689 664 660 670 683 679 683 678 692 686 698 687 650 643 642 651 641 647 653 661 666 674 673 666 657 640 642 646 652 657 661 664 670 676 681 686 690 696 699 702 706 708 710
731 727 675 663 669 678 674 671 688 687 700 694 684 674 682 664 653 649 652 658 667 676 683 681 675 669 652 648 655 659 660 662 662 668 676 682 683 690 695 698 702 704 705 706
722 726 689 687 681 674 662 679 680 685 681 696 671 669 678 679 669 659 657 664 675 685 692 690 686 678 668 660 662 663 665 666 664 669 678 681 685 692 695 699 701 702 702 705
723 721 704 684 668 665 651 668 683 686 681 667 679 694 694 676 665 665 665 671 683 692 697 697 693 687 680 676 668 666 668 668 667 670 678 683 688 693 695 698 700 700 701 704
735 714 702 686 677 656 653 656 668 685 676 688 687 697 701 685 675 682 685 686 689 697 702 703 699 695 692 686 679 674 674 674 672 674 679 685 690 693 694 698 699 699 702 705
738 727 717 697 669 654 659 658 671 679 685 689 685 697 694 684 684 695 698 696 698 705 709 712 709 705 700 695 689 684 678 677 678 677 681 687 691 693 694 697 699 699 702 705
727 714 705 692 684 659 672 680 693 689 679 684 677 685 692 693 701 707 710 710 713 717 719 719 718 713 709 703 697 691 683 679 679 681 684 688 690 692 693 696 698 699 703 705
720 697 692 683 664 662 685 697 690 673 679 675 675 681 700 704 722 727 730 729 731 733 732 729 727 723 718 712 706 701 694 685 682 682 685 688 690 691 692 695 698 700 703 705
715 707 674 669 656 661 680 676 674 690 702 701 707 714 714 722 742 748 747 745 745 743 741 738 735 731 725 719 714 708 703 694 689 684 688 688 690 690 692 695 697 700 703 704
713 703 670 678 668 686 691 683 692 714 730 732 728 730 734 747 757 757 757 757 756 754 751 748 743 737 732 726 718 713 710 705 700 692 693 694 694 694 696 697 699 702 704 707
698 679 674 674 683 703 701 708 708 709 745 751 749 750 747 748 749 762 768 767 765 762 758 756 750 744 740 731 725 719 718 715 709 705 701 702 702 700 701 701 704 706 707 711
685 680 674 672 677 697 735 734 719 713 748 762 762 765 759 756 752 771 774 772 770 767 764 760 755 750 743 738 733 726 723 724 723 717 711 711 713 712 709 709 710 711 711 716
696 689 688 690 692 729 755 731 710 724 767 771 773 775 773 772 779 782 780 777 775 773 769 765 760 755 752 747 743 737 731 733 736 728 714 714 718 722 722 721 720 719 720 721
726 725 722 711 718 732 762 739 751 776 776 776 779 781 782 785 786 785 784 782 780 777 774 771 767 765 761 756 753 747 741 741 747 725 723 723 726 732 733 732 734 734 729 731
743 748 747 756 765 779 781 781 785 783 783 784 784 787 788 789 791 791 789 787 785 784 782 780 777 774 769 764 760 756 761 756 749 737 740 733 731 740 744 739 742 746 743 737
751 750 752 759 778 782 785 788 791 792 792 792 791 793 793 794 795 796 795 793 792 791 789 787 783 780 777 773 769 766 765 759 759 753 748 746 750 749 750 750 750 757 753 742
770 762 761 772 780 785 793 795 796 797 797 796 798 798 798 798 799 800 800 800 799 798 796 794 791 790 788 783 778 773 773 769 765 761 761 762 764 759 764 762 763 769 764 762
780 785 775 778 786 788 798 801 802 801 800 800 801 802 803 803 804 805 805 805 805 803 802 800 798 796 796 792 788 786 782 776 773 772 772 774 771 769 774 773 770 776 773 772